| time (UTC) | temp F | wind direction | speed knots | gust knots | rain 1hr in | rain 24hr in | rain mn in | humidity % | barometer mb |
| 20260506034815 | 43 | 298 | 0.0 | 0.0 | 0.00 | 0.08 | 0.08 | 81 | 1006.8 |
| 20260506034319 | 44 | 273 | 0.0 | 0.0 | 0.00 | 0.08 | 0.08 | 80 | 1006.9 |
| 20260506033801 | 45 | 269 | 0.0 | 0.9 | 0.00 | 0.08 | 0.08 | 80 | 1006.4 |
| 20260506033304 | 45 | 270 | 0.0 | 0.0 | 0.00 | 0.08 | 0.08 | 79 | 1006.7 |
| 20260506032759 | 45 | 269 | 0.0 | 0.0 | 0.00 | 0.08 | 0.08 | 80 | 1006.7 |
| 20260506031023 | 44 | 236 | 0.0 | 0.0 | 0.00 | 0.08 | 0.08 | 80 | 1006.0 |
| 20260506030528 | 44 | 236 | 0.0 | 0.0 | 0.00 | 0.08 | 0.08 | 80 | 1006.0 |
| 20260506030027 | 44 | 236 | 0.0 | 0.0 | 0.00 | 0.08 | 0.08 | 80 | 1006.0 |
| 20260506025512 | 44 | 236 | 0.0 | 0.0 | 0.00 | 0.08 | 0.08 | 80 | 1005.9 |
| 20260506024349 | 44 | 236 | 0.0 | 0.0 | 0.00 | 0.08 | 0.08 | 79 | 1005.4 |
| 20260506023221 | 44 | 236 | 0.0 | 0.0 | 0.00 | 0.08 | 0.08 | 79 | 1004.9 |
| 20260506022707 | 44 | 236 | 0.0 | 0.0 | 0.00 | 0.08 | 0.08 | 79 | 1004.8 |
| 20260506022210 | 44 | 236 | 0.0 | 0.0 | 0.00 | 0.08 | 0.08 | 79 | 1004.7 |
| 20260506021705 | 44 | 236 | 0.0 | 0.0 | 0.00 | 0.08 | 0.08 | 79 | 1004.6 |
| 20260506021202 | 44 | 236 | 0.0 | 0.0 | 0.00 | 0.08 | 0.08 | 79 | 1004.6 |
| 20260506015410 | 44 | 236 | 0.0 | 3.5 | 0.00 | 0.08 | 0.08 | 78 | 1004.3 |
| 20260506014907 | 45 | 258 | 0.0 | 0.0 | 0.00 | 0.08 | 0.08 | 77 | 1004.2 |
| 20260506014413 | 45 | 234 | 0.0 | 4.3 | 0.00 | 0.06 | 0.06 | 76 | 1004.1 |
| 20260506013251 | 47 | 343 | 0.0 | 3.5 | 0.00 | 0.06 | 0.06 | 70 | 1004.2 |
| 20260506012744 | 48 | 288 | 0.0 | 0.0 | 0.00 | 0.06 | 0.06 | 68 | 1003.8 |
| 20260506012226 | 48 | 261 | 0.0 | 0.0 | 0.00 | 0.06 | 0.06 | 66 | 1003.8 |
| 20260506011724 | 48 | 260 | 0.0 | 0.0 | 0.00 | 0.06 | 0.06 | 66 | 1003.6 |
| 20260506011212 | 48 | 259 | 0.0 | 0.0 | 0.00 | 0.06 | 0.06 | 65 | 1003.6 |
| 20260506010705 | 48 | 258 | 0.0 | 0.0 | 0.00 | 0.06 | 0.06 | 65 | 1003.6 |
| 20260506010207 | 48 | 296 | 0.0 | 0.0 | 0.00 | 0.06 | 0.06 | 65 | 1003.6 |
| 20260506005712 | 48 | 297 | 0.0 | 1.7 | 0.00 | 0.06 | 0.06 | 64 | 1003.7 |
| 20260506005154 | 48 | 292 | 0.0 | 5.2 | 0.00 | 0.06 | 0.06 | 63 | 1003.5 |
| 20260506004652 | 49 | 258 | 0.0 | 0.0 | 0.00 | 0.06 | 0.06 | 63 | 1003.3 |
| 20260506004134 | 49 | 281 | 0.0 | 0.0 | 0.00 | 0.06 | 0.06 | 64 | 1003.4 |
| 20260506003615 | 49 | 250 | 0.0 | 2.6 | 0.00 | 0.06 | 0.06 | 64 | 1003.3 |
| 20260506003106 | 49 | 249 | 0.0 | 0.0 | 0.00 | 0.06 | 0.06 | 64 | 1003.3 |
| 20260506002553 | 49 | 249 | 0.0 | 0.0 | 0.00 | 0.06 | 0.06 | 64 | 1003.3 |
| 20260506002042 | 49 | 248 | 0.0 | 0.0 | 0.00 | 0.06 | 0.06 | 66 | 1003.2 |
| 20260506001524 | 49 | 248 | 0.0 | 0.0 | 0.00 | 0.06 | 0.06 | 65 | 1003.2 |
| 20260506001014 | 49 | 248 | 0.0 | 0.0 | 0.00 | 0.06 | 0.06 | 65 | 1003.2 |
| 20260506000458 | 50 | 242 | 0.0 | 0.0 | 0.00 | 0.06 | 0.06 | 64 | 1003.2 |
| 20260505235945 | 50 | 242 | 0.0 | 0.9 | 0.00 | 0.06 | 0.06 | 63 | 1003.2 |
| 20260505235451 | 51 | 242 | 0.9 | 6.1 | 0.00 | 0.06 | 0.06 | 61 | 1003.2 |
| 20260505234328 | 52 | 236 | 0.0 | 9.6 | 0.00 | 0.06 | 0.06 | 60 | 1003.3 |
| 20260505233811 | 51 | 259 | 0.0 | 3.5 | 0.00 | 0.06 | 0.06 | 62 | 1003.3 |
| 20260505232620 | 51 | 235 | 0.0 | 0.0 | 0.00 | 0.06 | 0.06 | 61 | 1003.1 |
| 20260505232126 | 52 | 219 | 0.0 | 1.7 | 0.00 | 0.06 | 0.06 | 60 | 1003.2 |
| 20260505231619 | 52 | 238 | 0.0 | 4.3 | 0.00 | 0.06 | 0.06 | 62 | 1003.1 |
| 20260505231113 | 52 | 295 | 0.0 | 0.0 | 0.00 | 0.06 | 0.06 | 64 | 1002.8 |
| 20260505230606 | 51 | 229 | 0.9 | 9.6 | 0.00 | 0.06 | 0.06 | 69 | 1002.7 |
| 20260505230104 | 50 | 218 | 0.9 | 5.2 | 0.00 | 0.06 | 0.06 | 71 | 1002.6 |
| 20260505225553 | 50 | 300 | 0.0 | 5.2 | 0.00 | 0.06 | 0.06 | 71 | 1002.6 |
| 20260505225050 | 50 | 246 | 0.0 | 2.6 | 0.00 | 0.06 | 0.06 | 74 | 1002.8 |
| 20260505223914 | 49 | 262 | 0.0 | 0.0 | 0.00 | 0.06 | 0.06 | 77 | 1003.0 |
| 20260505223415 | 49 | 250 | 0.0 | 9.6 | 0.00 | 0.06 | 0.06 | 80 | 1003.0 |
| 20260505222914 | 48 | 302 | 0.0 | 7.0 | 0.00 | 0.06 | 0.06 | 81 | 1003.0 |
| 20260505222424 | 48 | 298 | 0.0 | 7.8 | 0.00 | 0.06 | 0.06 | 83 | 1003.0 |
| 20260505221923 | 47 | 273 | 0.0 | 0.0 | 0.00 | 0.06 | 0.06 | 81 | 1003.1 |
| 20260505221428 | 47 | 285 | 0.0 | 9.6 | 0.00 | 0.06 | 0.06 | 81 | 1003.2 |
| 20260505220925 | 47 | 278 | 0.0 | 9.6 | 0.00 | 0.06 | 0.06 | 78 | 1002.9 |
| 20260505220424 | 48 | 304 | 0.0 | 0.0 | 0.00 | 0.06 | 0.06 | 78 | 1003.0 |
| 20260505215932 | 49 | 281 | 0.0 | 2.6 | 0.00 | 0.06 | 0.06 | 77 | 1002.8 |
| 20260505214817 | 50 | 220 | 0.0 | 11.3 | 0.00 | 0.06 | 0.06 | 72 | 1002.9 |
| 20260505214316 | 51 | 246 | 0.0 | 3.5 | 0.00 | 0.06 | 0.06 | 70 | 1002.8 |
| 20260505213806 | 51 | 286 | 0.0 | 0.0 | 0.00 | 0.06 | 0.06 | 71 | 1002.6 |
| 20260505213300 | 51 | 285 | 0.0 | 0.9 | 0.00 | 0.06 | 0.06 | 71 | 1002.7 |
| 20260505212749 | 51 | 166 | 0.0 | 1.7 | 0.00 | 0.06 | 0.06 | 71 | 1002.8 |
| 20260505212239 | 51 | 257 | 0.9 | 7.8 | 0.00 | 0.06 | 0.06 | 72 | 1002.9 |
| 20260505211724 | 51 | 289 | 0.9 | 11.3 | 0.00 | 0.06 | 0.06 | 72 | 1003.3 |
| 20260505211223 | 51 | 247 | 0.9 | 11.3 | 0.00 | 0.06 | 0.06 | 73 | 1003.3 |
| 20260505210727 | 51 | 282 | 0.9 | 7.8 | 0.00 | 0.06 | 0.06 | 73 | 1003.1 |
| 20260505205610 | 51 | 226 | 0.0 | 9.6 | 0.00 | 0.06 | 0.06 | 71 | 1003.1 |
| 20260505205101 | 52 | 289 | 0.9 | 7.0 | 0.00 | 0.06 | 0.06 | 69 | 1003.1 |
| 20260505204544 | 52 | 330 | 0.9 | 9.6 | 0.00 | 0.06 | 0.06 | 69 | 1003.1 |
| 20260505204044 | 52 | 283 | 0.9 | 8.7 | 0.00 | 0.06 | 0.06 | 68 | 1003.0 |
| 20260505203526 | 53 | 254 | 0.9 | 8.7 | 0.00 | 0.06 | 0.06 | 71 | 1003.1 |
| 20260505203024 | 53 | 318 | 0.9 | 12.2 | 0.00 | 0.06 | 0.06 | 72 | 1003.2 |
| 20260505202508 | 52 | 240 | 0.9 | 12.2 | 0.00 | 0.06 | 0.06 | 76 | 1003.1 |
| 20260505202012 | 51 | 298 | 0.9 | 12.2 | 0.00 | 0.06 | 0.06 | 76 | 1003.1 |
| 20260505201522 | 51 | 141 | 0.9 | 10.4 | 0.00 | 0.06 | 0.06 | 76 | 1003.0 |
| 20260505201017 | 51 | 284 | 0.9 | 9.6 | 0.00 | 0.06 | 0.06 | 77 | 1002.9 |
| 20260505200513 | 50 | 272 | 0.0 | 0.0 | 0.00 | 0.06 | 0.06 | 81 | 1002.8 |
| 20260505200001 | 50 | 265 | 0.0 | 4.3 | 0.00 | 0.06 | 0.06 | 81 | 1002.7 |
| 20260505195506 | 49 | 277 | 0.9 | 8.7 | 0.00 | 0.06 | 0.06 | 81 | 1002.8 |
| 20260505194956 | 49 | 277 | 0.0 | 8.7 | 0.00 | 0.06 | 0.06 | 81 | 1002.9 |
| 20260505194451 | 50 | 300 | 0.0 | 8.7 | 0.00 | 0.06 | 0.06 | 82 | 1003.0 |
| 20260505193938 | 50 | 298 | 0.0 | 8.7 | 0.00 | 0.06 | 0.06 | 81 | 1003.0 |
| 20260505193441 | 50 | 270 | 0.0 | 6.1 | 0.00 | 0.06 | 0.06 | 80 | 1003.0 |
| 20260505192941 | 50 | 241 | 0.0 | 2.6 | 0.00 | 0.06 | 0.06 | 82 | 1003.1 |
| 20260505192437 | 49 | 241 | 0.0 | 0.0 | 0.00 | 0.06 | 0.06 | 82 | 1003.1 |
| 20260505191309 | 50 | 307 | 0.0 | 3.5 | 0.00 | 0.04 | 0.06 | 84 | 1003.1 |
| 20260505190812 | 49 | 250 | 0.0 | 0.9 | 0.00 | 0.04 | 0.05 | 79 | 1003.2 |
| 20260505185650 | 50 | 201 | 0.0 | 11.3 | 0.00 | 0.04 | 0.05 | 72 | 1003.3 |
| 20260505185153 | 51 | 211 | 1.7 | 11.3 | 0.00 | 0.04 | 0.05 | 68 | 1003.2 |
| 20260505184652 | 52 | 236 | 2.6 | 11.3 | 0.00 | 0.04 | 0.05 | 65 | 1003.2 |
| 20260505184146 | 53 | 164 | 1.7 | 11.3 | 0.00 | 0.04 | 0.05 | 64 | 1003.1 |
| 20260505183015 | 52 | 241 | 0.0 | 9.6 | 0.00 | 0.04 | 0.05 | 66 | 1003.2 |
| 20260505182523 | 52 | 184 | 0.0 | 0.0 | 0.00 | 0.04 | 0.05 | 69 | 1003.1 |
| 20260505180745 | 51 | 171 | 0.0 | 8.7 | 0.00 | 0.04 | 0.05 | 73 | 1003.2 |
| 20260505180248 | 50 | 210 | 0.9 | 0.0 | 0.00 | 0.04 | 0.05 | 73 | 1003.4 |
| 20260505175732 | 50 | 222 | 0.9 | 6.1 | 0.00 | 0.04 | 0.05 | 74 | 1003.4 |
| 20260505175222 | 50 | 235 | 0.0 | 6.1 | 0.00 | 0.04 | 0.05 | 77 | 1003.5 |
| 20260505174732 | 49 | 198 | 0.0 | 0.0 | 0.00 | 0.04 | 0.05 | 76 | 1003.3 |
| 20260505174223 | 49 | 198 | 0.0 | 0.0 | 0.00 | 0.04 | 0.05 | 77 | 1003.3 |
| 20260505173713 | 49 | 198 | 0.0 | 0.0 | 0.00 | 0.04 | 0.05 | 77 | 1003.5 |
| 20260505172554 | 48 | 188 | 0.0 | 0.0 | 0.00 | 0.04 | 0.05 | 76 | 1003.5 |
| 20260505172041 | 48 | 186 | 0.0 | 5.2 | 0.00 | 0.04 | 0.05 | 76 | 1003.2 |
| 20260505170919 | 47 | 184 | 0.0 | 5.2 | 0.00 | 0.04 | 0.05 | 81 | 1003.4 |
| 20260505170409 | 47 | 250 | 0.0 | 0.0 | 0.00 | 0.04 | 0.05 | 81 | 1003.2 |
| 20260505165910 | 46 | 250 | 0.0 | 0.0 | 0.00 | 0.04 | 0.05 | 81 | 1003.3 |
| 20260505165400 | 46 | 303 | 0.0 | 0.0 | 0.00 | 0.04 | 0.05 | 83 | 1003.4 |
| 20260505164908 | 46 | 303 | 0.0 | 0.0 | 0.00 | 0.04 | 0.05 | 84 | 1003.3 |
| 20260505164352 | 45 | 303 | 0.0 | 0.0 | 0.00 | 0.04 | 0.05 | 85 | 1003.2 |
| 20260505163846 | 45 | 303 | 0.0 | 0.0 | 0.00 | 0.04 | 0.05 | 84 | 1003.2 |
| 20260505163338 | 45 | 303 | 0.0 | 0.0 | 0.00 | 0.04 | 0.05 | 85 | 1003.1 |
| 20260505162839 | 45 | 303 | 0.0 | 0.0 | 0.00 | 0.04 | 0.05 | 86 | 1003.3 |
| 20260505161712 | 45 | 304 | 0.0 | 0.0 | 0.00 | 0.04 | 0.05 | 86 | 1003.5 |
| 20260505160600 | 44 | 304 | 0.0 | 0.0 | 0.00 | 0.04 | 0.05 | 86 | 1003.7 |
| 20260505160108 | 44 | 304 | 0.0 | 0.0 | 0.00 | 0.04 | 0.05 | 85 | 1003.6 |
| 20260505153311 | 44 | 304 | 0.0 | 0.0 | 0.00 | 0.04 | 0.05 | 87 | 1003.6 |
| 20260505152807 | 44 | 304 | 0.0 | 0.0 | 0.00 | 0.04 | 0.05 | 88 | 1003.5 |
| 20260505152305 | 44 | 304 | 0.0 | 0.0 | 0.00 | 0.04 | 0.05 | 88 | 1003.7 |
| 20260505151811 | 44 | 267 | 0.0 | 0.0 | 0.00 | 0.04 | 0.05 | 88 | 1003.7 |
| 20260505151259 | 44 | 267 | 0.0 | 0.0 | 0.00 | 0.04 | 0.05 | 88 | 1003.8 |
| 20260505150804 | 44 | 267 | 0.0 | 0.0 | 0.00 | 0.04 | 0.05 | 88 | 1003.8 |
| 20260505150258 | 44 | 267 | 0.0 | 0.0 | 0.00 | 0.04 | 0.05 | 87 | 1003.7 |
| 20260505124943 | 47 | 294 | 0.0 | 0.0 | 0.00 | 0.00 | 0.00 | 59 | 1003.2 |
| 20260505124453 | 47 | 294 | 0.0 | 0.0 | 0.00 | 0.00 | 0.00 | 58 | 1003.2 |
| 20260505123947 | 47 | 294 | 0.0 | 0.0 | 0.00 | 0.00 | 0.00 | 58 | 1003.2 |
| 20260505123450 | 47 | 292 | 0.0 | 0.0 | 0.00 | 0.00 | 0.00 | 58 | 1003.3 |
| 20260505122329 | 48 | 292 | 0.0 | 0.0 | 0.00 | 0.00 | 0.00 | 58 | 1003.1 |
| 20260505121817 | 48 | 292 | 0.0 | 0.0 | 0.00 | 0.00 | 0.00 | 59 | 1003.2 |
| 20260505121258 | 47 | 301 | 0.0 | 0.0 | 0.00 | 0.00 | 0.00 | 59 | 1003.4 |
| 20260505120804 | 47 | 238 | 0.0 | 3.5 | 0.00 | 0.00 | 0.00 | 59 | 1003.4 |
| 20260505120304 | 47 | 236 | 0.0 | 1.7 | 0.00 | 0.00 | 0.00 | 58 | 1003.2 |
| 20260505115801 | 47 | 236 | 0.0 | 1.7 | 0.00 | 0.00 | 0.00 | 58 | 1003.0 |
| 20260505115306 | 47 | 240 | 0.0 | 0.0 | 0.00 | 0.00 | 0.00 | 56 | 1003.0 |
| 20260505114746 | 47 | 240 | 0.0 | 0.0 | 0.00 | 0.00 | 0.00 | 56 | 1003.0 |
| 20260505114255 | 48 | 291 | 0.0 | 0.0 | 0.00 | 0.00 | 0.00 | 55 | 1003.1 |
| 20260505113739 | 48 | 291 | 0.0 | 0.0 | 0.00 | 0.00 | 0.00 | 55 | 1003.0 |
| 20260505113221 | 48 | 292 | 0.0 | 0.0 | 0.00 | 0.00 | 0.00 | 55 | 1003.2 |
| 20260505112101 | 48 | 267 | 0.0 | 0.0 | 0.00 | 0.00 | 0.00 | 53 | 1003.1 |
| 20260505111558 | 48 | 267 | 0.0 | 7.0 | 0.00 | 0.00 | 0.00 | 52 | 1002.9 |
| 20260505110440 | 48 | 275 | 0.0 | 0.0 | 0.00 | 0.00 | 0.00 | 51 | 1003.2 |
| 20260505101919 | 48 | 147 | 1.7 | 12.2 | 0.00 | 0.00 | 0.00 | 46 | 1002.8 |
| 20260505101402 | 48 | 284 | 0.0 | 9.6 | 0.00 | 0.00 | 0.00 | 46 | 1002.8 |
| 20260505100903 | 49 | 264 | 0.9 | 6.1 | 0.00 | 0.00 | 0.00 | 45 | 1002.7 |
| 20260505095740 | 49 | 258 | 0.9 | 9.6 | 0.00 | 0.00 | 0.00 | 44 | 1003.0 |
| 20260505095233 | 49 | 231 | 0.9 | 9.6 | 0.00 | 0.00 | 0.00 | 43 | 1003.0 |
| 20260505094718 | 49 | 257 | 0.9 | 9.6 | 0.00 | 0.00 | 0.00 | 43 | 1002.8 |
| 20260505094203 | 49 | 294 | 0.9 | 13.0 | 0.00 | 0.00 | 0.00 | 43 | 1002.7 |
| 20260505093654 | 49 | 305 | 0.9 | 9.6 | 0.00 | 0.00 | 0.00 | 43 | 1002.5 |
| 20260505093140 | 49 | 261 | 0.0 | 9.6 | 0.00 | 0.00 | 0.00 | 43 | 1002.4 |
| 20260505092620 | 49 | 240 | 0.0 | 7.0 | 0.00 | 0.00 | 0.00 | 43 | 1002.5 |
| 20260505092104 | 50 | 258 | 0.9 | 0.0 | 0.00 | 0.00 | 0.00 | 42 | 1002.3 |
| 20260505091611 | 50 | 261 | 0.9 | 8.7 | 0.00 | 0.00 | 0.00 | 42 | 1002.4 |
| 20260505091111 | 50 | 259 | 1.7 | 13.0 | 0.00 | 0.00 | 0.00 | 42 | 1002.6 |
| 20260505090603 | 50 | 153 | 1.7 | 13.0 | 0.00 | 0.00 | 0.00 | 42 | 1002.7 |
| 20260505084837 | 50 | 278 | 2.6 | 13.9 | 0.00 | 0.00 | 0.00 | 41 | 1003.3 |
| 20260505083738 | 51 | 341 | 2.6 | 13.9 | 0.00 | 0.00 | 0.00 | 39 | 1003.6 |
| 20260505082615 | 51 | 280 | 2.6 | 15.6 | 0.00 | 0.00 | 0.00 | 36 | 1003.5 |
| 20260505081510 | 51 | 246 | 2.6 | 15.6 | 0.00 | 0.00 | 0.00 | 38 | 1003.5 |
| 20260505080952 | 51 | 214 | 1.7 | 11.3 | 0.00 | 0.00 | 0.00 | 40 | 1003.5 |
| 20260505080457 | 51 | 236 | 1.7 | 11.3 | 0.00 | 0.00 | 0.00 | 41 | 1003.6 |
| 20260505075329 | 51 | 277 | 1.7 | 14.8 | 0.00 | 0.00 | 0.00 | 42 | 1003.7 |
| 20260505074822 | 51 | 287 | 1.7 | 14.8 | 0.00 | 0.00 | 0.00 | 42 | 1003.6 |
| 20260505074309 | 51 | 300 | 1.7 | 14.8 | 0.00 | 0.00 | 0.00 | 41 | 1003.4 |
| 20260505073819 | 51 | 289 | 1.7 | 10.4 | 0.00 | 0.00 | 0.00 | 41 | 1003.4 |
| 20260505073303 | 52 | 261 | 0.0 | 10.4 | 0.00 | 0.00 | 0.00 | 41 | 1003.7 |
| 20260505072748 | 52 | 273 | 0.9 | 10.4 | 0.00 | 0.00 | 0.00 | 40 | 1003.4 |
| 20260505072255 | 52 | 247 | 2.6 | 13.0 | 0.00 | 0.00 | 0.00 | 40 | 1003.4 |
| 20260505071739 | 52 | 242 | 1.7 | 13.0 | 0.00 | 0.00 | 0.00 | 40 | 1003.4 |
| 20260505071231 | 52 | 257 | 2.6 | 13.0 | 0.00 | 0.00 | 0.00 | 40 | 1003.5 |
| 20260505070730 | 52 | 224 | 1.7 | 13.0 | 0.00 | 0.00 | 0.00 | 40 | 1003.6 |
| 20260505070239 | 52 | 216 | 1.7 | 7.0 | 0.00 | 0.00 | 0.00 | 40 | 1003.3 |
| 20260505065737 | 52 | 179 | 2.6 | 13.9 | 0.00 | 0.00 | 0.00 | 40 | 1003.4 |
| 20260505065228 | 52 | 324 | 1.7 | 13.9 | 0.00 | 0.00 | 0.00 | 40 | 1003.6 |
| 20260505064723 | 52 | 267 | 0.0 | 9.6 | 0.00 | 0.00 | 0.00 | 41 | 1003.6 |
| 20260505064224 | 52 | 273 | 0.0 | 5.2 | 0.00 | 0.00 | 0.00 | 42 | 1003.7 |
| 20260505063056 | 53 | 196 | 0.0 | 7.8 | 0.00 | 0.00 | 0.00 | 41 | 1003.7 |
| 20260505062540 | 53 | 231 | 0.0 | 7.8 | 0.00 | 0.00 | 0.00 | 38 | 1003.8 |
| 20260505062041 | 53 | 227 | 0.0 | 1.7 | 0.00 | 0.00 | 0.00 | 37 | 1003.9 |
| 20260505061528 | 53 | 254 | 0.9 | 13.0 | 0.00 | 0.00 | 0.00 | 37 | 1004.0 |
| 20260505060342 | 53 | 238 | 0.0 | 2.6 | 0.00 | 0.00 | 0.00 | 39 | 1004.0 |
| 20260505055851 | 53 | 248 | 0.0 | 6.1 | 0.00 | 0.00 | 0.00 | 39 | 1004.0 |
| 20260505054731 | 53 | 261 | 0.0 | 0.0 | 0.00 | 0.00 | 0.00 | 40 | 1003.9 |
| 20260505054229 | 53 | 209 | 0.0 | 5.2 | 0.00 | 0.00 | 0.00 | 40 | 1004.0 |
| 20260505053712 | 54 | 192 | 0.9 | 8.7 | 0.00 | 0.00 | 0.00 | 39 | 1004.0 |
| 20260505052545 | 55 | 215 | 0.0 | 7.0 | 0.00 | 0.00 | 0.00 | 35 | 1004.1 |
| 20260505052043 | 56 | 231 | 0.0 | 8.7 | 0.00 | 0.00 | 0.00 | 32 | 1004.0 |
| 20260505051550 | 56 | 266 | 0.0 | 12.2 | 0.00 | 0.00 | 0.00 | 30 | 1003.9 |
| 20260505051042 | 56 | 249 | 0.9 | 12.2 | 0.00 | 0.00 | 0.00 | 30 | 1004.0 |
| 20260505050530 | 56 | 182 | 0.9 | 12.2 | 0.00 | 0.00 | 0.00 | 29 | 1004.0 |
| 20260505041449 | 57 | 273 | 0.0 | 11.3 | 0.00 | 0.00 | 0.00 | 28 | 1004.0 |
| 20260505040931 | 58 | 279 | 0.0 | 2.6 | 0.00 | 0.00 | 0.00 | 28 | 1003.9 |
| 20260505040432 | 58 | 246 | 0.0 | 0.0 | 0.00 | 0.00 | 0.00 | 28 | 1004.0 |
| 20260505035922 | 58 | 277 | 0.0 | 12.2 | 0.00 | 0.00 | 0.00 | 28 | 1004.1 |
| 20260505035405 | 58 | 285 | 0.0 | 12.2 | 0.00 | 0.00 | 0.00 | 28 | 1004.1 |